SCP
2 2 3 2 2 2 2 2 2 2 1 1 1 1 1 0 1 1 1 1 1 1 1 1 1 1 1 1 1 1 1 1 0 0 0 0 0 0 0 0 0 0 0
2 2 2 2 2 2 2 2 1 1 1 1 1 1 1 1 1 1 1 1 1 1 1 1 1 1 1 1 1 1 1 1 0 0 0 0 0 0 0 0 0 0 0
1 1 1 1 1 1 1 1 1 1 1 1 1 1 1 1 1 1 1 1 1 1 1 1 1 1 1 1 1 1 1 1 0 0 0 0 0 0 0 0 0 0 0
1 1 1 1 1 1 1 1 1 1 1 1 1 1 1 1 1 1 1 1 1 1 1 1 1 1 1 1 1 1 1 1 1 0 0 0 0 0 0 0 0 0 0
1 1 1 1 1 1 1 1 1 1 1 1 1 1 1 1 1 1 1 1 1 1 1 1 1 1 1 1 1 1 1 1 1 0 0 0 0 0 0 0 0 0 0
1 0 0 1 1 1 1 1 1 1 1 1 1 1 1 1 1 1 1 1 1 1 1 1 1 1 1 1 1 1 1 1 0 0 0 0 0 0 0 0 0 0 0
1 1 1 1 1 1 1 1 1 1 1 1 1 1 1 1 1 1 1 1 1 1 1 1 1 1 1 1 1 1 1 1 0 0 0 0 0 0 0 0 0 0 0
1 1 1 1 1 1 1 1 1 1 1 1 0 0 0 0 1 1 1 1 1 1 1 1 1 1 1 1 1 1 1 1 0 0 0 0 0 0 0 0 0 0 0
1 1 1 1 1 1 1 1 1 0 0 0 0 0 0 0 0 1 1 1 1 1 1 1 1 0 0 1 1 1 1 1 0 0 0 0 0 0 0 0 0 0 0
1 1 1 1 1 1 1 1 0 0 0 0 0 0 0 0 0 0 0 0 1 1 1 0 0 0 1 1 1 1 1 0 0 0 0 0 0 0 0 0 0 0 0
1 1 1 1 1 1 1 1 1 0 0 0 0 0 0 0 0 0 0 0 0 0 0 0 1 1 1 1 1 1 1 0 0 0 0 0 1 0 0 0 0 0 0
1 1 1 1 1 1 1 1 1 0 0 0 0 0 0 0 0 0 0 0 0 0 0 0 0 0 0 0 1 1 0 0 0 0 0 1 1 1 0 0 0 0 0
2 2 1 1 1 1 1 1 1 1 0 0 0 0 0 0 0 0 0 0 0 0 0 0 0 0 0 0 0 0 0 0 0 0 0 1 1 1 0 0 0 0 0
3 2 2 1 1 1 1 1 1 1 1 1 0 0 0 0 0 0 0 0 0 0 0 0 0 0 0 0 0 0 0 0 0 0 0 1 1 0 0 0 0 0 0
4 3 3 2 2 2 2 1 1 1 1 1 1 0 0 0 0 0 0 0 0 0 0 0 0 0 0 0 0 0 0 0 0 0 0 0 1 1 1 1 1 0 0
4 4 3 3 2 2 2 2 2 2 2 2 1 0 0 0 0 0 0 0 0 0 0 0 0 0 0 0 0 0 0 0 0 0 0 0 1 1 1 1 1 1 1
4 4 4 3 3 3 3 3 3 3 3 2 1 1 0 0 0 0 1 1 0 0 0 0 0 0 0 0 0 0 0 0 0 0 0 0 1 1 1 1 1 1 1
4 4 4 4 4 4 4 4 4 3 3 2 2 1 1 1 1 1 1 1 0 0 0 0 0 0 0 0 0 0 0 0 0 0 0 0 1 1 1 1 2 2 2
3 3 3 4 4 5 4 4 4 3 3 2 2 2 2 1 1 1 1 1 0 0 0 0 0 0 0 0 0 0 0 1 1 0 0 0 1 1 1 1 2 2 2
3 3 3 4 4 4 4 3 3 3 2 2 2 2 2 2 2 2 1 1 1 0 0 0 0 0 0 0 0 0 0 1 1 1 0 0 0 1 1 1 2 2 2
4 4 3 3 4 4 3 2 2 2 2 1 1 1 2 2 2 2 1 1 1 1 1 0 0 0 0 0 0 0 0 0 1 1 0 0 0 0 0 1 1 1 2
5 5 4 4 4 3 2 2 2 1 1 1 1 1 1 1 1 1 1 1 1 1 1 1 1 1 1 0 0 0 0 0 0 0 0 0 0 0 0 0 1 1 1
5 5 4 4 4 3 2 2 2 2 1 1 1 1 1 1 1 1 1 1 1 1 1 1 1 1 1 0 0 0 0 0 0 0 0 0 1 0 0 0 0 0 0
5 5 4 4 4 3 3 3 2 2 2 1 1 1 1 1 1 1 1 1 1 1 1 1 1 1 1 1 0 0 0 0 0 0 0 0 0 0 0 0 0 0 0
4 4 4 4 4 4 4 3 3 3 2 2 2 2 2 2 2 2 2 2 1 1 1 1 1 1 1 1 1 0 0 0 0 0 0 0 0 0 0 0 0 0 0
4 4 5 5 4 4 4 4 3 3 2 2 2 2 2 2 2 2 2 2 2 1 1 1 1 1 1 1 1 1 0 0 0 0 0 0 0 0 0 0 1 0 0
Wind_Speed
3 4 12 14 15 15 16 16 16 16 16 16 16 17 17 17 17 17 17 17 17 17 17 17 17 18 17 18 17 17 17 17 17 16 16 16 16 16 16 17 15 11 17
5 6 13 14 15 15 15 15 16 15 16 16 16 16 16 16 16 17 16 16 16 17 17 17 17 17 17 17 17 17 17 17 16 16 16 14 15 15 15 16 15 10 16
8 6 10 14 15 15 15 15 15 15 16 16 16 16 16 16 16 16 16 16 16 17 17 17 17 16 16 16 16 16 16 16 16 16 14 8 10 14 15 15 16 16 15
9 6 9 14 14 15 14 14 15 15 16 16 16 15 15 16 16 16 16 16 16 17 17 16 16 16 15 14 14 14 14 14 15 15 7 6 7 14 14 15 15 15 15
8 6 9 15 15 14 14 14 14 15 16 16 16 16 15 16 16 16 16 16 16 16 16 16 15 15 14 13 12 12 12 12 14 11 6 5 5 12 14 14 14 14 14
8 6 9 15 15 14 14 14 14 15 15 15 15 15 15 16 16 16 16 15 15 15 15 14 14 13 12 11 10 10 11 13 12 7 6 5 5 11 14 13 13 13 13
8 6 8 15 14 14 13 14 14 15 15 15 15 15 15 15 15 16 15 15 15 14 14 13 12 11 11 10 9 10 10 13 8 6 5 5 6 11 13 13 12 12 12
9 7 8 14 14 14 14 14 14 14 14 14 14 15 15 15 14 14 14 14 14 13 12 11 10 9 9 8 8 8 10 11 10 8 5 5 9 11 13 12 12 11 11
9 7 5 6 9 13 13 13 13 13 13 13 13 14 14 14 14 13 13 13 12 12 11 10 9 8 8 7 7 7 9 11 7 5 7 4 10 12 12 12 11 11 11
8 7 6 5 5 5 7 12 13 13 13 13 13 13 13 13 12 12 11 11 11 10 9 8 7 7 6 6 6 7 10 10 5 5 4 6 12 12 12 12 11 11 11
8 6 6 5 5 5 5 9 9 11 11 10 9 12 10 5 5 6 9 10 10 9 8 6 5 4 4 3 4 6 7 3 4 4 4 10 13 12 12 11 11 11 10
9 8 6 6 6 5 5 5 3 4 4 4 3 4 3 3 3 5 7 9 9 8 6 4 2 2 2 1 2 4 2 4 4 4 5 13 12 12 12 11 11 11 10
11 9 8 7 6 5 4 4 2 2 2 3 3 4 3 2 2 2 2 3 3 4 2 1 1 1 1 0 0 1 3 3 3 3 6 13 12 12 12 11 11 10 10
10 10 9 8 6 5 5 4 3 2 2 2 3 4 3 2 2 2 1 1 1 1 1 0 1 1 1 0 1 3 3 3 3 3 5 13 12 12 12 12 11 11 10
10 10 9 8 7 6 5 4 4 3 3 3 3 3 4 3 3 2 1 1 2 1 2 1 1 1 1 1 2 4 4 4 5 4 4 12 12 11 12 12 12 11 11
10 9 8 8 8 7 5 4 4 4 3 3 3 4 5 4 4 3 2 2 2 2 2 2 2 2 1 1 2 3 4 4 4 4 4 7 12 12 12 12 12 12 12
10 9 8 8 7 7 6 5 4 4 4 4 3 4 5 5 4 4 3 2 2 2 2 1 1 1 1 1 1 2 3 4 5 5 5 4 5 11 13 13 13 13 13
10 9 9 9 8 6 5 4 3 3 4 3 3 3 5 5 5 4 3 2 2 2 2 1 1 1 0 0 0 1 2 3 5 5 5 5 4 5 9 14 14 13 14
11 10 8 7 8 6 5 4 3 3 4 3 3 3 4 5 5 4 3 3 2 2 1 2 1 1 1 1 1 1 1 2 4 5 5 6 6 6 5 10 14 14 15
11 10 9 7 7 6 4 3 2 2 2 3 3 4 5 4 5 4 3 3 3 2 1 1 1 1 1 1 1 1 2 3 3 4 6 6 6 7 7 7 7 10 16
10 10 9 9 7 6 3 3 3 3 2 2 3 4 5 4 5 4 3 3 3 3 3 2 2 1 1 1 1 2 3 2 4 4 4 4 6 7 7 8 6 5 6
12 11 10 10 9 7 5 4 3 3 2 3 3 3 4 4 5 5 4 3 3 3 3 3 2 2 1 1 2 1 2 4 3 4 3 4 6 5 7 9 8 8 6
13 13 11 10 9 8 6 3 3 2 1 1 2 3 4 5 4 4 5 4 4 4 3 3 3 3 2 2 2 3 2 3 3 3 3 4 4 4 5 5 8 8 9
13 12 10 10 9 8 7 6 6 5 4 4 3 3 3 4 5 4 4 4 4 3 3 4 3 3 3 2 2 2 3 3 2 3 3 3 4 5 5 6 7 8 8
12 11 10 10 9 8 7 8 7 5 4 3 2 3 3 3 4 4 4 4 4 3 4 4 3 3 3 3 2 2 2 2 3 3 4 4 3 3 5 5 5 5 7
11 11 10 10 9 8 8 7 7 7 6 5 4 4 3 3 3 4 4 3 4 3 4 4 4 4 3 3 3 2 2 2 3 3 4 4 4 4 3 4 4 5 5
Wind_Direction
82 93 98 96 95 93 91 90 91 92 93 95 96 97 98 100 103 105 107 109 110 110 110 110 110 111 111 112 113 113 113 113 112 112 115 116 116 116 115 114 112 110 112
125 106 103 99 98 96 95 94 93 93 95 97 98 100 101 102 105 107 108 110 110 111 112 111 111 110 111 112 112 112 113 112 112 112 112 114 116 116 116 115 115 117 115
115 106 104 103 101 100 98 96 96 96 96 97 99 100 101 104 106 108 110 110 111 111 111 110 110 110 111 112 113 114 114 113 112 110 107 103 111 115 117 118 117 117 116
115 107 107 107 104 102 100 99 98 99 98 97 98 101 102 104 107 107 108 110 112 111 111 111 110 109 109 110 111 112 114 114 113 109 98 96 107 115 118 120 118 118 118
110 107 113 110 107 105 102 101 101 101 100 99 97 99 102 103 107 109 109 110 110 110 110 110 109 108 107 105 106 109 112 112 112 105 94 89 97 117 119 121 122 122 122
113 113 119 115 112 109 106 105 103 103 102 101 100 100 101 103 107 110 109 109 110 111 111 109 109 107 104 102 102 105 109 114 110 105 102 101 105 120 121 123 123 123 122
120 118 120 118 117 115 112 108 106 105 105 104 104 104 103 104 104 106 107 106 108 108 108 107 106 104 101 100 98 102 107 116 113 110 109 107 117 124 124 124 123 125 124
125 120 122 122 121 119 117 114 112 110 110 110 110 109 108 107 107 107 108 107 108 108 106 106 105 105 100 96 94 101 112 118 121 122 117 119 129 127 126 127 128 129 128
125 120 115 120 121 122 121 120 118 117 117 116 116 115 115 114 114 113 113 113 112 112 110 110 108 105 98 93 90 95 112 117 119 127 131 130 133 131 131 132 133 132 132
127 126 123 118 114 117 121 126 125 125 125 123 123 122 121 120 119 119 119 120 119 117 116 113 109 102 96 93 91 99 111 113 120 127 127 141 140 138 136 136 137 137 136
137 140 138 134 131 130 133 134 131 131 131 129 128 128 120 106 110 118 127 128 126 127 126 122 113 102 91 86 91 102 103 109 127 130 139 148 147 145 143 142 142 143 143
154 157 154 150 149 152 142 127 129 132 129 125 124 125 118 121 132 132 136 136 135 134 136 137 123 74 49 47 79 95 103 118 121 140 153 153 152 150 149 149 149 150 150
160 160 163 162 162 160 137 146 145 133 138 142 145 144 138 130 128 118 120 128 133 140 129 133 26 351 345 5 109 125 130 129 133 149 158 158 158 158 157 158 157 157 159
161 164 168 165 168 165 153 157 158 154 158 160 160 155 143 137 135 142 146 149 153 157 177 225 301 298 295 203 150 141 145 141 145 148 165 166 167 167 167 166 167 168 168
162 165 167 162 164 162 158 169 165 168 170 167 160 159 152 151 157 160 172 172 175 171 181 202 231 249 238 172 149 148 150 152 155 161 169 174 174 175 177 177 178 179 178
163 163 162 161 161 155 158 162 162 169 171 166 166 169 160 156 159 163 169 181 185 181 187 190 194 203 198 145 138 154 160 163 167 170 178 183 184 184 187 187 188 189 189
161 159 157 158 155 152 157 164 164 169 164 168 175 174 168 160 161 163 165 174 189 183 172 165 157 126 147 130 145 155 165 169 173 178 182 187 193 197 198 198 197 198 200
159 160 164 161 156 157 156 155 160 166 165 172 174 170 172 168 163 159 163 183 189 170 150 150 138 110 91 132 199 204 176 181 185 188 189 192 196 202 208 207 205 206 207
164 163 166 158 160 162 158 157 158 158 165 171 169 171 175 172 166 163 177 190 180 159 165 183 144 144 165 212 239 236 208 199 197 197 199 202 204 205 205 215 213 211 212
165 163 164 164 167 162 153 146 143 144 165 172 174 179 177 174 170 171 179 189 177 163 183 180 164 167 185 205 255 272 250 235 222 212 210 207 207 209 205 213 214 219 219
165 164 167 169 174 165 159 161 164 177 181 184 195 191 186 183 176 175 182 181 178 182 195 185 165 186 221 160 66 340 318 268 239 230 216 207 212 211 205 210 209 209 220
172 171 170 175 177 177 180 173 170 169 183 187 193 192 193 192 187 186 180 182 185 187 196 192 170 170 229 165 144 105 324 324 300 244 222 217 216 208 209 212 211 208 214
177 178 178 179 179 182 179 161 153 128 116 172 205 203 206 197 195 193 184 185 188 186 197 203 187 177 208 229 177 160 178 248 299 301 256 235 218 213 218 215 215 215 214
182 179 176 177 179 184 177 173 172 178 192 205 201 202 208 204 201 199 191 194 193 190 195 205 194 187 184 222 237 208 195 184 206 298 305 269 236 227 222 225 223 219 217
179 178 178 178 182 185 185 184 183 191 199 193 187 193 205 214 207 200 196 196 195 195 201 206 197 198 195 203 217 225 228 217 200 208 276 295 286 248 230 227 224 220 220
176 178 178 180 187 189 189 189 190 194 193 184 188 193 204 207 212 209 199 202 203 201 204 210 209 209 214 216 220 213 204 214 219 208 239 264 273 273 247 234 226 223 225